Back to catalog

KUIPER-00446

AliveCommunicationsLEO
NORAD 68944·PAYLOAD·🇺🇸 United States

Launched Apr 30, 2026 from Guiana Space Centre

Loading…

Next Passes (next 24 hours)

TLE

FreshSource: CelesTrak SupGP

Epoch: Sep 14, 2026, 16:35 UTC

1 68944C 26098AB  26257.69143519 -.00006184  00000+0 -80973-3 0  2573
2 68944  51.9002  17.3884 0000701 236.4060  59.3093 14.79927321    15

Track KUIPER-00446 in real time with AllMySat

Download on the App Store